Weather Roundup
Issued by NWS

Home | Current Version | Previous Version | Graphics & Text | Print | Product List | Glossary Off
Versions: 1 2 3 4 5 6 7 8 9 10 11 12 13 14 15 16 17 18 19 20 21 22 23 24 25 26 27 28 29 30 31 32 33 34 35 36 37 38 39 40 41 42 43 44 45 46 47 48 49 50

000
NZUS93 KARX 251859
HRRWXR

CURRENT HOURLY OBSERVATIONS ACROSS
MUCH OF THE UPPER MISSISSIPPI VALLEY
NATIONAL WEATHER SERVICE LA CROSSE WI
100 PM CST THU DEC 25 2014


...SOUTHEAST MINNESOTA...


CITY           SKY/WX    TMP DP  RH WIND       PRES   REMARKS
ROCHESTER      CLOUDY    33  29  85 S9        29.75S WCI  25
ROCHESTER/MAYO CLOUDY    35  29  81 S7        29.75S WCI  29
WINONA         CLOUDY    36  30  80 S3        29.79S
AUSTIN         PTSUNNY   34  30  86 S9        29.72F WCI  26
ALBERT LEA     PTSUNNY   36  30  80 S6        29.71F WCI  31
DODGE CENTER   CLOUDY    34  30  86 S14       29.73S WCI  24
PRESTON        CLOUDY    34  29  83 S13G20    29.76S WCI  25
OWATONNA       PTSUNNY   36  30  80 S9        29.73S WCI  29
FARIBAULT      CLOUDY    34  30  86 SE8       29.73F WCI  27
$$

...ELSEWHERE IN MINNESOTA...


CITY           SKY/WX    TMP DP  RH WIND       PRES   REMARKS
MINNEAPOLIS    CLOUDY    34  28  79 S5        29.74F WCI  30
INTNL FALLS    CLOUDY    31  26  82 W10       29.65R WCI  22
DULUTH         CLOUDY    32  26  78 W12       29.68R WCI  23
RED WING       CLOUDY    36  28  75 S5        29.76S WCI  32
REDWOOD FALLS  LGT SNOW  33  28  81 NE5       29.71S WCI  29
MANKATO        CLOUDY    36  27  69 S7        29.71F WCI  30
WORTHINGTON    MOSUNNY   37 -11  12 CALM      29.68R
FAIRMONT       PTSUNNY   34  27  75 S9        29.70R WCI  26
$$

...SOUTHWEST WISCONSIN...


CITY           SKY/WX    TMP DP  RH WIND       PRES   REMARKS
LA CROSSE      CLOUDY    37  29  72 S9        29.80S WCI  30
PRAIRIE DU CHI PTSUNNY   41  29  64 S3        29.82F
BOSCOBEL       PTSUNNY   42  30  62 S8        29.83F
LONE ROCK      NOT AVBL
PLATTEVILLE    MOSUNNY   40  34  77 S12G17    29.85R WCI  33
FORT MC COY    CLOUDY    36  29  76 S8        29.82S WCI  29
VIROQUA        FAIR      34  32  92 S12       29.79F WCI  26
WIS DELLS      NOT AVBL
$$

...ELSEWHERE IN WISCONSIN...


CITY           SKY/WX    TMP DP  RH WIND       PRES   REMARKS
MILWAUKEE      PTSUNNY   40  28  62 SW18      29.90R WCI  31
MADISON        PTSUNNY   39  29  67 SW9G16    29.86S WCI  33
GREEN BAY      CLOUDY    35  29  78 SW13      29.83R WCI  26
EAU CLAIRE     NOT AVBL
BLACK RVR FLS  CLOUDY    35  28  75 SW7       29.80S WCI  29
MEDFORD        LGT SNOW  30  27  89 SW8       29.76S WCI  23
WAUSAU         CLOUDY    32  27  81 SW13      29.77S WCI  22
WIS RAPIDS     CLOUDY    34  27  75 SW8       29.82S WCI  27
MARSHFIELD     CLOUDY    33  27  78 SW9       29.78F WCI  25
RICE LAKE      CLOUDY    32  28  84 S9        29.76S WCI  24
$$

...NORTHEAST IOWA...


CITY           SKY/WX    TMP DP  RH WIND       PRES   REMARKS
DECORAH        CLOUDY    37  30  75 S9        29.77F WCI  31
MASON CITY     CLOUDY    35  30  82 S12       29.73F WCI  27
CHARLES CITY   PTSUNNY   39  32  75 S16       29.75F WCI  30
OELWEIN        PTSUNNY   39  32  75 S16       29.79F WCI  30
$$

...ELSEWHERE IN IOWA...


CITY           SKY/WX    TMP DP  RH WIND       PRES   REMARKS
DES MOINES     PTSUNNY   47  32  56 S14G23    29.73F
IOWA CITY      MOSUNNY   44  32  62 S13       29.85F
FORT DODGE     CLOUDY    37  28  70 S8        29.70F WCI  31
$$

...NORTHERN ILLINOIS...


CITY           SKY/WX    TMP DP  RH WIND       PRES   REMARKS
CHICAGO-OHARE  PTSUNNY   39  29  67 SW16G24   29.95R WCI  30
CHICAGO-MIDWAY PTSUNNY   41  31  67 SW13      29.96S
MOLINE         SUNNY     46  32  58 S15       29.88F
ROCKFORD       CLOUDY    42  32  67 S17       29.93F
PEORIA         SUNNY     47  33  58 SW14      29.95S
$$

NOTE: "FAIR" INDICATES FEW OR NO CLOUDS BELOW 12,000 FEET WITH NO
SIGNIFICANT WEATHER AND/OR OBSTRUCTIONS TO VISIBILITY. WIND
SPEEDS ARE IN MILES-PER-HOUR.



USA.gov is the U.S. government's official web portal to all federal, state and local government web resources and services.